Location: Le Domaine
(47.0333°N, 76.5361°W)
Time: 20:11:43
(UTC-05:00)

Courier 1B Rocket - Visible Passes

Search period start: 19 November 2019 00:00
Search period end: 29 November 2019 00:00
Orbit: 920 x 1202 km, 28.2° (Epoch: 19 November)

Date Brightness Start Highest point End Pass type
(mag) Time Alt. Az. Time Alt. Az. Time Alt. Az.
19 Nov 7.5 18:36:22 10° SW 18:40:04 14° SSW 18:43:50 10° SSE visible
20 Nov 7.5 17:35:05 10° SW 17:39:16 16° S 17:43:33 10° SSE visible
21 Nov 7.7 18:28:41 10° SW 18:30:46 11° SSW 18:32:52 10° S visible
22 Nov 7.7 17:26:44 10° SW 17:30:01 13° SSW 17:33:22 10° SSE visible
24 Nov 8.0 17:19:46 10° SSW 17:20:45 10° SSW 17:21:45 10° S visible
